Location: Makanda
(37.6176°N, 89.2090°W)
Time: 12:52:25
(UTC+00:00)

Shenzhou-11 Module - Pass Details

Date: 23 September 2019
Orbit: 314 x 326 km, 42.8° (Epoch: 16 October)

Event Time Altitude Azimuth Distance (km) Brightness Sun altitude
Exits shadow 09:57:47 30° 61° (ENE) 594 3.6 -21.8°
Drops below altitude 10° 09:59:21 10° 65° (ENE) 1,215 5.7 -21.5°
Sets 10:01:20 0° 67° (ENE) 2,049 7.3 -21.1°
